AirNav  
 
 629 users online  

40CN Loma Linda University Medical Center-Murrieta Heliport
Murrieta, California, USA


FAA INFORMATION EFFECTIVE 09 NOVEMBER 2017

Location

FAA Identifier: 40CN
Lat/Long: 33-36-52.9000N / 117-10-11.8300W
33-36.881667N / 117-10.197167W
33.6146944 / -117.1699528
(estimated)
Elevation: 1576 ft. / 480 m (estimated)
From city: 6 miles SW of MURRIETA, CA
Time zone: UTC -8 (UTC -7 during Daylight Saving Time)
Zip code: 92563

Heliport Operations

Heliport use: Private use. Permission required prior to landing
Activation date: 10/2011
Control tower: no
ARTCC: LOS ANGELES CENTER
FSS: RIVERSIDE FLIGHT SERVICE STATION
Attendance: UNATNDD
Wind indicator: lighted
Segmented circle: no
Lights: SS-SR
Beacon: white-green-yellow (heliport)
Operates sunset to sunrise.

Heliport Communications

WX AWOS-3 at F70 (3 nm SE): 119.025 (951-696-1018)
WX AWOS-3 at HMT (10 nm NE): 118.375 (951-925-6886)
WX AWOS-3P at L18 (16 nm S): 118.425 (760-723-6073)

Nearby radio navigation aids

VOR radial/distance  VOR name  Freq  Var
HDFr161/(9.7)HOMELAND VOR113.4014E
RALr132/(24.7)RIVERSIDE VOR112.4014E
PDZr120/25.6PARADISE VORTAC112.2015E
OCNr014/25.6OCEANSIDE VORTAC115.3015E
ELBr083/28.3EL TORO VOR/DME117.2014E
PSPr234/40.0PALM SPRINGS VORTAC115.5013E

Heliport Services

Runway Information

Helipad H1

Dimensions: 45 x 45 ft. / 14 x 14 m
Surface: concrete
Runway edge lights: PERI
Latitude: 33-36.881667N
Longitude: 117-10.197167W
Elevation: 1576.0 ft.
Traffic pattern: leftleft

Heliport Ownership and Management from official FAA records

Ownership: Privately-owned
Owner: LOMA LINDA UNIV. MED CTR-MURRIETA
28062 BAXTER ROAD, STE. 140
MURRIETA, CA 92563
Phone 951-290-4000
Manager: ROB BOOTHBY
28062 BAXTER ROAD
MURRIETA, CA 92563
Phone (951) 290-4124

Instrument Procedures

There are no published instrument procedures at 40CN.

Some nearby airports with instrument procedures:

F70 - French Valley Airport (3 nm SE)
KHMT - Hemet-Ryan Airport (10 nm NE)
L18 - Fallbrook Community Airpark (16 nm S)
KRIV - March Air Reserve Base (17 nm N)
KNFG - Camp Pendleton MCAS (Munn Field) Airport (21 nm SW)
 
Loc | Ops | Rwys | IFR | FBO | Links
Com | Nav | Svcs | Stats | Notes

San Bernardino International Airport Authority
 
Aerial photo
No photo
 
Airport distance calculator
Flying to Loma Linda University Medical Center-Murrieta Heliport? Find the distance to fly.

From to 40CN

Sunrise and sunset
Times for 23-Nov-2017
 Local
(UTC-8)
 Zulu
(UTC)
Morning civil twilight06:0214:02
Sunrise06:2914:29
Sunset16:4100:41
Evening civil twilight17:0801:08

Current date and time
Zulu (UTC)  23-Nov-2017 21:35:39
Local (UTC-8)  23-Nov-2017 13:35:39
 
METAR
KF70 
3nm SE 
232115Z AUTO 36003KT 10SM CLR 33/01 A2998 RMK AO1
KRIV 
16nm N 
232058Z AUTO 00000KT 10SM CLR 33/00 A3000 RMK AO2 SLP147 T03271004 57027
KL18 
16nm S 
232115Z AUTO 24009KT 10SM CLR 34/03 A2995 RMK AO2
TAF
KRIV 
16nm N 
232000Z 2320/2502 31009KT 9999 FEW250 QNH2999INS BECMG 2403/2404 VRB06KT 9999 SCT250 QNH3000INS BECMG 2419/2420 31009KT 9999 FEW250 QNH2994INS TX32/2322Z TN08/2412Z
NOTAMs
Click for the latest NOTAMs
NOTAMs are issued by the DoD/FAA and will open in a separate window not controlled by AirNav.

 

 
 

Would you like to see your business listed on this page?

 If your business provides an interesting product or service to pilots, flight crews, aircraft, or users of the Loma Linda University Medical Center-Murrieta Heliport, you should consider listing it here.  To start the listing process, click on the button below
 
Add a business
 

Other Pages about Loma Linda University Medical Center-Murrieta Heliport

Update a link
 
Copyright © AirNav, LLC. All rights reserved. Privacy Policy  Contact